Вернуться в каталог

STARLINK-5758

АктивенСвязьVLEO
NORAD 56037·PAYLOAD·🇺🇸 United States

Запущен Mar 24, 2023 с Cape Canaveral Space Force Station

Loading…

Ближайшие Пролёты (ближайшие 24 часа)

TLE

СвежийSource: CelesTrak SupGP

Эпоха: Sep 15, 2026, 01:47 UTC

1 56037C 23042BD  26258.07479167 -.00052689  00000+0 -19082-2 0  2587
2 56037  43.0049  41.2024 0001996 272.1077 177.6771 15.27607223    19

Отслеживайте STARLINK-5758 в реальном времени с AllMySat

Download on the App Store